Flag for United Kingdom Weather past 2 weeks in Lichfield, England, United Kingdom

Now
52 °F

Light fog.


Feels Like: 51 °F
Forecast: 49 / 66 °F
Wind: 5 mph from South

Location: Birmingham / Airport

Current Time: Sep 30, 2014 at 7:25:39 AM

Latest Report: Sep 30, 2014 at 6:50 AM


Visibility: 1 mi

Pressure: 30.15 "Hg

Humidity: 100%

Dew point: 52 °F

Location of LichfieldLocation

Historic Weather in Lichfield — Graph

°F

Lichfield temperature yesterday

Maximum temperature yesterday: 68 °F (at 1:50 PM)
Minimum temperature yesterday: 57 °F (at 5:50 AM)
Average temperature yesterday: 62 °F

Past Weeks' High & Low Weather Summary

 TemperatureHumidityPressure
High73 °F (Sep 18, 3:20 PM)100% (Sep 15, 7:20 AM)30.36 "Hg (Sep 15, 7:20 AM)
Low39 °F (Sep 22, 5:50 AM)46% (Sep 22, 2:50 PM)29.80 "Hg (Sep 18, 3:20 PM)
Average60 °F81%30.08 "Hg
* Reported Sep 15 6:20 AM — Sep 30 6:20 AM, Lichfield, Weather by CustomWeather, © 2014

Note: Actual official high and low records may vary slightly from our data, if they occured in-between our weather recording intervals... More about our weather records

Advertising

Lichfield weather history for previous 24 hours

 ConditionsComfort  
Time TempWeatherWind HumidityBarometerVisibility
6:20 AM
Sep 30
52 °FFog.5 mph100%30.15 "Hg2 mi
5:50 AM52 °FFog.5 mph100%30.15 "Hg1 mi
5:20 AM52 °FFog.5 mph100%30.15 "Hg1 mi
4:50 AM52 °FSnow. Fog.5 mph100%30.15 "Hg2 mi
4:20 AM54 °FHaze.3 mph100%30.15 "Hg3 mi
3:50 AM55 °FClear.5 mph94%30.12 "Hg4 mi
3:20 AM55 °FClear.3 mph94%30.12 "Hg4 mi
2:50 AM55 °FCool.5 mph94%30.12 "Hg4 mi
2:20 AM57 °FCool.5 mph88%30.12 "Hg4 mi
1:50 AM57 °FHaze.5 mph94%30.12 "Hg3 mi
1:20 AM57 °FHaze.5 mph94%30.12 "Hg2 mi
12:50 AM59 °FHaze.3 mph94%30.12 "Hg2 mi
12:20 AM59 °FHaze.5 mph94%30.12 "Hg2 mi
11:50 PM
Sep 29
59 °FPassing clouds.6 mph94%30.12 "Hg2 mi
11:20 PM59 °FPassing clouds.2 mph94%30.12 "Hg2 mi
10:50 PM61 °FPassing clouds.6 mph88%30.12 "Hg2 mi
10:20 PM61 °FPassing clouds.6 mph88%30.12 "Hg3 mi
9:50 PM61 °FPassing clouds.3 mph88%30.09 "Hg3 mi
9:20 PM61 °FPassing clouds.5 mph88%30.09 "Hg4 mi
8:50 PM63 °FPassing clouds.5 mph83%30.09 "Hg4 mi
8:20 PM63 °FPassing clouds.5 mph83%30.09 "Hg4 mi
7:50 PM63 °FPassing clouds.3 mph83%30.09 "Hg4 mi
7:20 PM63 °FClear.5 mph83%30.09 "Hg4 mi
6:50 PM63 °FClear.7 mph83%30.09 "Hg4 mi
6:20 PM64 °FHaze.6 mph83%30.09 "Hg3 mi
5:50 PM66 °FPassing clouds.6 mph68%30.07 "Hg6 mi
5:20 PM66 °FPassing clouds.6 mph73%30.07 "HgN/A
4:50 PM68 °FPassing clouds.7 mph69%30.07 "HgN/A
4:20 PM68 °FPassing clouds.6 mph69%30.07 "HgN/A
3:50 PM68 °FPassing clouds.7 mph69%30.07 "HgN/A
3:20 PM68 °FScattered clouds.6 mph69%30.07 "HgN/A
2:50 PM68 °FBroken clouds.7 mph64%30.07 "HgN/A
2:20 PM68 °FScattered clouds.5 mph69%30.09 "HgN/A
1:50 PM68 °FScattered clouds.3 mph69%30.09 "HgN/A
1:20 PM66 °FPassing clouds.No wind73%30.09 "HgN/A
12:50 PM66 °FPassing clouds.5 mph73%30.09 "HgN/A
12:20 PM66 °FPassing clouds.5 mph73%30.09 "Hg6 mi
11:50 AM64 °FClear.2 mph78%30.09 "Hg6 mi
11:20 AM63 °FPassing clouds.3 mph83%30.09 "Hg5 mi
10:50 AM61 °FScattered clouds.3 mph83%30.12 "Hg4 mi
10:20 AM61 °FScattered clouds.3 mph83%30.12 "Hg5 mi
9:50 AM61 °FScattered clouds.3 mph83%30.12 "Hg5 mi
9:20 AM59 °FScattered clouds.3 mph88%30.12 "Hg5 mi
8:50 AM59 °FPassing clouds.2 mph82%30.12 "Hg5 mi
8:20 AM57 °FClear.3 mph88%30.09 "Hg4 mi
7:50 AM57 °FClear.5 mph88%30.09 "Hg4 mi
7:20 AM57 °FPassing clouds.5 mph88%30.09 "Hg4 mi
Weather by CustomWeather, © 2014

See weather overviewHow to use our weather pages